Back to catalog

STARLINK-34504

AliveCommunicationsVLEO
NORAD 64600·PAYLOAD·🇺🇸 United States

Launched Jun 25, 2025 from Cape Canaveral Space Force Station

Loading…

Next Passes (next 24 hours)

TLE

FreshSource: CelesTrak SupGP

Epoch: Sep 14, 2026, 23:08 UTC

1 64600C 25137G   26257.96437500 -.00030471  00000+0 -89990-3 0  2571
2 64600  53.1582 175.3043 0001220  91.7518 303.3020 15.34418640    19

Track STARLINK-34504 in real time with AllMySat

Download on the App Store